TimePST,TemperatureF,Dew PointF,Humidity,Sea Level PressureIn,VisibilityMPH,Wind Direction,Wind SpeedMPH,Gust SpeedMPH,PrecipitationIn,Events,Conditions,WindDirDegrees,DateUTC
12:58 AM,39.7,37.6,92,30.29,10.0,SSE,2.3,-,N/A,,Overcast,150,2013-02-09 08:58:00
1:58 AM,37.0,36.7,99,30.30,10.0,South,2.3,-,N/A,,Overcast,180,2013-02-09 09:58:00
2:58 AM,36.1,36.0,99,30.30,10.0,South,3.5,-,N/A,,Overcast,190,2013-02-09 10:58:00
3:58 AM,36.5,36.3,99,30.29,10.0,South,2.3,-,N/A,,Overcast,170,2013-02-09 11:58:00
4:23 AM,37.4,37.4,100,30.27,10.0,Calm,Calm,-,N/A,,Overcast,0,2013-02-09 12:23:00
4:53 AM,37.4,37.4,100,30.27,10.0,WSW,1.2,-,N/A,,Overcast,240,2013-02-09 12:53:00
4:58 AM,37.4,37.0,99,30.29,10.0,SW,1.2,-,N/A,,Overcast,230,2013-02-09 12:58:00
5:08 AM,37.4,37.4,100,30.27,10.0,SSW,2.3,-,N/A,,Overcast,210,2013-02-09 13:08:00
5:58 AM,37.6,37.4,99,30.29,10.0,West,3.5,-,N/A,,Overcast,270,2013-02-09 13:58:00
6:58 AM,37.0,36.7,99,30.29,10.0,SE,2.3,-,N/A,,Overcast,140,2013-02-09 14:58:00
7:58 AM,36.3,36.1,99,30.29,10.0,ESE,1.2,-,N/A,,Overcast,120,2013-02-09 15:58:00
8:19 AM,37.4,37.4,100,30.27,10.0,SSW,1.2,-,N/A,,Overcast,200,2013-02-09 16:19:00
8:34 AM,37.4,37.4,100,30.27,10.0,SW,1.2,-,N/A,,Overcast,220,2013-02-09 16:34:00
8:58 AM,38.5,37.9,98,30.29,10.0,South,1.2,-,N/A,,Overcast,190,2013-02-09 16:58:00
9:18 AM,39.2,37.4,93,30.27,10.0,SW,2.3,-,N/A,,Overcast,220,2013-02-09 17:18:00
9:38 AM,39.2,39.2,100,30.28,10.0,Calm,Calm,-,N/A,,Mostly Cloudy,0,2013-02-09 17:38:00
9:58 AM,41.0,38.8,92,30.30,10.0,Variable,1.2,-,N/A,,Partly Cloudy,0,2013-02-09 17:58:00
10:58 AM,42.8,38.3,84,30.31,10.0,West,1.2,-,N/A,,Overcast,280,2013-02-09 18:58:00
11:53 AM,44.6,39.2,81,30.28,10.0,Calm,Calm,-,N/A,,Overcast,0,2013-02-09 19:53:00
11:58 AM,44.4,38.1,79,30.30,10.0,Calm,Calm,-,N/A,,Overcast,0,2013-02-09 19:58:00
12:58 PM,45.0,37.6,75,30.29,10.0,West,3.5,-,N/A,,Overcast,270,2013-02-09 20:58:00
1:58 PM,44.8,35.2,69,30.28,10.0,WSW,4.6,-,N/A,,Overcast,240,2013-02-09 21:58:00
2:43 PM,44.6,35.6,71,30.26,10.0,Variable,2.3,-,N/A,,Overcast,0,2013-02-09 22:43:00
2:58 PM,45.5,35.6,68,30.28,10.0,Variable,2.3,-,N/A,,Overcast,0,2013-02-09 22:58:00
3:58 PM,45.9,35.1,66,30.29,10.0,North,3.5,-,N/A,,Overcast,350,2013-02-09 23:58:00
4:58 PM,45.5,36.3,70,30.30,10.0,NE,4.6,-,N/A,,Overcast,50,2013-02-10 00:58:00
5:58 PM,44.1,36.9,76,30.31,10.0,ENE,6.9,-,N/A,,Overcast,70,2013-02-10 01:58:00
6:58 PM,43.2,38.7,84,30.31,10.0,ENE,5.8,-,N/A,,Overcast,70,2013-02-10 02:58:00
7:58 PM,41.0,38.5,91,30.31,10.0,NE,3.5,-,N/A,,Mostly Cloudy,50,2013-02-10 03:58:00
8:58 PM,40.5,39.4,96,30.32,10.0,North,2.3,-,N/A,,Overcast,10,2013-02-10 04:58:00
9:58 PM,41.0,39.7,95,30.33,10.0,North,1.2,-,N/A,,Overcast,10,2013-02-10 05:58:00
10:58 PM,40.5,39.9,98,30.35,10.0,NNW,2.3,-,N/A,,Overcast,330,2013-02-10 06:58:00
11:53 PM,39.2,39.2,100,30.34,10.0,Calm,Calm,-,N/A,,Overcast,0,2013-02-10 07:53:00
11:58 PM,39.6,39.2,99,30.36,10.0,Calm,Calm,-,N/A,,Overcast,0,2013-02-10 07:58:00